This is the latest recevied weather packets stored in our database for station/object DG9MHV-10. If no packets are shown the sender has not sent any weather packets the latest 10 day(s).
| Time | Temp. | Humidity | Pressure | Rain* | Wind** | Luminosity | Snow |
|---|---|---|---|---|---|---|---|
| 1777902976 | 25.56° C | 100% | 1012.2 hPa | - | - | - | - |
| 1777902075 | 25.56° C | 100% | 1012.6 hPa | - | - | - | - |
| 1777901175 | 25° C | 100% | 1012.7 hPa | - | - | - | - |
| 1777900275 | 25.56° C | 100% | 1012.7 hPa | - | - | - | - |
| 1777899375 | 25.56° C | 100% | 1012.9 hPa | - | - | - | - |
| 1777898475 | 24.44° C | 100% | 1012.9 hPa | - | - | - | - |
| 1777897575 | 24.44° C | 100% | 1013.1 hPa | - | - | - | - |
| 1777896675 | 24.44° C | 100% | 1013 hPa | - | - | - | - |
| 1777895775 | 25° C | 100% | 1013.2 hPa | - | - | - | - |
| 1777894874 | 25° C | 100% | 1013.3 hPa | - | - | - | - |
| 1777893974 | 23.89° C | 100% | 1013.5 hPa | - | - | - | - |
| 1777893074 | 23.33° C | 100% | 1013.7 hPa | - | - | - | - |
| 1777892174 | 23.89° C | 100% | 1013.9 hPa | - | - | - | - |
| 1777891273 | 23.33° C | 100% | 1014 hPa | - | - | - | - |
| 1777890373 | 22.78° C | 100% | 1014.1 hPa | - | - | - | - |
| 1777889473 | 22.78° C | 100% | 1014.3 hPa | - | - | - | - |
| 1777888573 | 24.44° C | 100% | 1014.4 hPa | - | - | - | - |
| 1777887673 | 24.44° C | 100% | 1014.6 hPa | - | - | - | - |
| 1777886772 | 26.67° C | 93% | 1014.7 hPa | - | - | - | - |
| 1777885872 | 27.22° C | 94% | 1014.8 hPa | - | - | - | - |
| 1777884972 | 27.78° C | 87% | 1015 hPa | - | - | - | - |
| 1777884072 | 28.33° C | 82% | 1015.1 hPa | - | - | - | - |
| 1777883172 | 29.44° C | 79% | 1015.2 hPa | - | - | - | - |
| 1777882272 | 28.89° C | 96% | 1015.3 hPa | - | - | - | - |
| 1777881372 | 27.78° C | 100% | 1015.4 hPa | - | - | - | - |
* Rain since midnight (hover to see other rain measurements)
** Current wind speed in m/s (hover to see current wind gust speed)